sat.trackr.live / text

‹ back to catalog

STARLINK-30557

NORAD 58087 · 2023-160N

PAYLOAD ACTIVE UNKNOWN

§ Identity

Operator
Country
US
Launch date
2023-10-18
Launch site
AFETR
Launch vehicle
Mass (kg)
RCS (m²)

Purposes: comms

External: N2YO · Heavens-Above · Gunter

§ Orbital elements

Epoch: 2026-09-20T17:39:16.419744Z

Period
94.27 min
Inclination
43.0035°
Eccentricity
0.0000775
Mean motion
15.27575095 rev/d
Perigee alt
482.5 km
Apogee alt
483.6 km
Semi-major
6,861.2 km
B*
3.4559e-6
RAAN
59.9356°
Arg perigee
278.8804°
Mean anomaly
81.1959°
Rev number
16,273

§ Raw data

STARLINK-305571 58087U 23160N   26263.73560671 -.00000167  00000+0  34559-5 0  99992 58087  43.0035  59.9356 0000775 278.8804  81.1959 15.27575095162736

JSON: /api/v1/satellites/58087 · /tle

For live sub-satellite position, see the globe view (requires WebGL).

§ Visibility from observer

Set your observer location to see the next 7 days of passes ≥ 10°. The values pass through the URL so the page stays shareable.

No JS? Fill the form by hand. The geolocation button needs JavaScript.